Location: *
(46.1006°N, 1.8394°E)
Time: 08:45:17
(UTC+00:00)

SJ-6B - Pass Details

Date: 20 September 2019
Orbit: 509 x 583 km, 97.6° (Epoch: 18 October)

Event Time Altitude Azimuth Distance (km) Brightness Sun altitude
Exits shadow 19:56:56 17° 192° (SSW) 1,479 4.9 -21.3°
Maximum altitude 19:59:50 47° 261° (W) 777 3.8 -21.7°
Drops below altitude 10° 20:03:47 10° 336° (NNW) 1,887 6.2 -22.3°
Sets 20:06:00 0° 342° (NNW) 2,779 7.1 -22.7°
